[[{"header":{"parameterUnit":"m.s-1","parameterCategory":1,"la1":30.2991,"la2":30.254,"lo1":-89.0895,"lo2":-89.0444,"dy":0.0017,"dx":0.0017,"nx":28,"ny":28,"refTime":"2023-07-19T09:00:00:Z","depth":0,"parameterNumber":2,"parameterNumberName":"U-component_of_WINDS"},"data":[0,0,0,0,0,0,0,0,0,0,0,0,0,0,0,0,0,0,0,0,0,0,0,0,0,0,0,0,0,0,0,0,0,0,0,0,0,0,0,0,0,0,0,0,0,0,0,0,0,0,0,0,0,0,0,0,0,0,-0.9187,-0.9186,0,-0.9123,-0.9122,-0.9122,-0.9071,-0.907,-0.907,-0.9069,-0.9004,-0.9002,-0.9001,0,0,0,0,0,0,0,0,0,0,0,0,0,-0.9266,-0.9264,-0.9187,-0.9186,-0.9185,-0.9123,-0.9122,-0.9121,-0.9071,-0.907,-0.907,-0.9069,-0.9004,-0.9002,-0.9001,0,0,0,0,0,0,0,0,0,0,0,0,0,-0.922,-0.9264,-0.9187,-0.9153,-0.9149,-0.9123,-0.9122,-0.9121,-0.9071,-0.907,-0.907,-0.9069,-0.9004,-0.9003,-0.9001,-0.9004,0,0,-0.8995,-0.8994,0,0,0,0,0,0,0,0,-0.9222,-0.9217,-0.9159,-0.9155,-0.9151,-0.9104,-0.9126,-0.9082,-0.9071,-0.9101,-0.9069,-0.9069,-0.9038,-0.9033,-0.9023,-0.9001,-0.8998,-0.8995,-0.8993,-0.8993,-0.8992,0,0,0,0,0,0,0,-0.9225,-0.9219,-0.9162,-0.9158,-0.9153,-0.9141,-0.9133,-0.9117,-0.9074,-0.9098,-0.9094,-0.9087,-0.9035,-0.9025,-0.9021,-0.8997,-0.8995,-0.8993,-0.8992,-0.8991,-0.8974,-0.8975,0,0,0,0,0,0,-0.9234,-0.9222,-0.9164,-0.916,-0.9185,-0.914,-0.9132,-0.912,-0.9074,-0.9066,-0.9088,-0.9085,-0.9028,-0.9023,-0.9018,-0.9019,-0.8993,-0.8991,-0.899,-0.8974,-0.8975,-0.8975,0,0,0,0,0,0,-0.9236,-0.9229,-0.9166,-0.919,-0.9181,-0.9139,-0.9127,-0.9119,-0.9108,-0.9067,-0.9059,-0.9085,-0.9027,-0.9021,-0.9008,-0.9016,-0.899,-0.8988,-0.8973,-0.8974,-0.8975,-0.902,0,0,0,0,0,0,-0.9238,-0.923,-0.9231,-0.919,-0.918,-0.9157,-0.9127,-0.9118,-0.9105,-0.9101,-0.9062,-0.9054,-0.9026,-0.9011,-0.9006,-0.9012,-0.8987,-0.8972,-0.8973,-0.8975,-0.9018,-0.9022,-0.9027,0,0,0,0,0,-0.9241,-0.9246,-0.9231,-0.9224,-0.918,-0.9158,-0.9152,-0.9119,-0.9106,-0.9106,-0.908,-0.9056,-0.9016,-0.901,-0.9004,-0.901,-0.8971,-0.8973,-0.8975,-0.9016,-0.9021,-0.9026,0,0,0,0,0,0,-0.9288,-0.924,-0.9223,-0.9215,-0.9191,-0.9149,-0.9148,-0.9127,-0.9106,-0.9103,-0.9064,-0.9055,-0.9046,-0.9027,-0.9021,-0.9011,-0.899,-0.8991,-0.9024,-0.9029,-0.9033,-0.9038,-0.8985,0,0,0,0,0,-0.9298,-0.9284,-0.9242,-0.9239,-0.9228,-0.9191,-0.918,-0.9157,-0.913,-0.912,-0.9092,-0.9068,-0.9049,-0.9038,-0.9019,-0.9015,-0.9005,-0.9016,-0.9021,-0.9025,-0.9025,-0.9022,-0.9026,-0.8981,-0.8981,-0.8981,0,0,-0.9317,-0.9289,-0.9282,-0.9248,-0.9226,-0.9213,-0.9182,-0.9169,-0.9159,-0.9118,-0.9104,-0.9083,-0.9053,-0.9044,-0.9039,-0.9028,-0.9036,-0.9027,-0.903,-0.9028,-0.9024,-0.9028,-0.9032,-0.8982,-0.8982,-0.8982,0,0,-0.9345,-0.9322,-0.9317,-0.9297,-0.9265,-0.924,-0.9239,-0.9201,-0.9186,-0.9171,-0.914,-0.9127,-0.9097,-0.9077,-0.9062,-0.9084,-0.9061,-0.9079,-0.9102,-0.9099,-0.9103,-0.9105,-0.9113,-0.9116,-0.908,-0.908,-0.908,0,-0.9373,-0.9351,-0.9317,-0.9306,-0.9292,-0.9255,-0.9249,-0.9231,-0.9195,-0.9186,-0.9174,-0.9135,-0.9112,-0.9098,-0.9104,-0.9093,-0.9091,-0.9083,-0.9105,-0.9107,-0.911,-0.9116,-0.9119,-0.9082,-0.9082,-0.9082,-0.9081,0,-0.9387,-0.9372,-0.9372,-0.9338,-0.9324,-0.9316,-0.9281,-0.927,-0.9249,-0.9226,-0.9212,-0.9183,-0.9158,-0.9153,-0.9132,-0.9136,-0.913,-0.9112,-0.9091,-0.9117,-0.9122,-0.9125,-0.9086,-0.9085,-0.9084,-0.9083,0,0,-0.9442,-0.939,-0.939,-0.9375,-0.9337,-0.9326,-0.9316,-0.9291,-0.9283,-0.926,-0.9251,-0.9226,-0.921,-0.9193,-0.917,-0.9167,-0.9186,-0.9149,-0.9148,-0.9157,-0.9189,-0.9203,-0.9206,-0.9171,-0.9171,-0.9172,-0.9192,0,-0.9464,-0.9444,-0.9414,-0.9404,-0.939,-0.9355,-0.9347,-0.9323,-0.9301,-0.9287,-0.9262,-0.9246,-0.9225,-0.9215,-0.9211,-0.9185,-0.9192,-0.9183,-0.9162,-0.9162,-0.917,-0.9209,-0.9223,-0.9243,-0.9194,-0.9194,-0.9194,0,-0.9487,-0.9465,-0.9454,-0.9419,-0.9412,-0.9405,-0.938,-0.9366,-0.9339,-0.9323,-0.9306,-0.928,-0.9268,-0.925,-0.9233,-0.9227,-0.9217,-0.9203,-0.9203,-0.9199,-0.9179,-0.9206,-0.9249,-0.9252,-0.9197,-0.9197,-0.9197,0,-0.9528,-0.9496,-0.9486,-0.9474,-0.9431,-0.9427,-0.941,-0.9382,-0.9369,-0.9347,-0.9339,-0.9316,-0.9304,-0.9287,-0.9256,-0.9246,-0.9243,-0.9221,-0.9229,-0.923,-0.9229,-0.923,-0.9271,-0.9224,-0.9224,-0.9224,-0.9224,0,-0.9555,-0.955,-0.9504,-0.9497,-0.949,-0.9456,-0.945,-0.9429,-0.9404,-0.9393,-0.9362,-0.9352,-0.9312,-0.9298,-0.9274,-0.9263,-0.9258,-0.9245,-0.9239,-0.9248,-0.9249,-0.924,-0.9237,-0.9224,-0.9224,-0.9224,-0.9224,0,-0.96,-0.9569,-0.9555,-0.9516,-0.9507,-0.9503,-0.947,-0.9463,-0.9439,-0.9426,-0.942,-0.9384,-0.9365,-0.9333,-0.9305,-0.9289,-0.9283,-0.9273,-0.9293,-0.9289,-0.9298,-0.9298,-0.9334,-0.9337,-0.9289,-0.929,-0.929,0,-0.9619,-0.9614,-0.9575,-0.9566,-0.9549,-0.9534,-0.9521,-0.9487,-0.9475,-0.9443,-0.944,-0.9419,-0.94,-0.9372,-0.9343,-0.9322,-0.931,-0.9324,-0.9307,-0.9316,-0.931,-0.9311,-0.931,-0.9328,-0.9329,-0.933,-0.933,0,-0.9657,-0.9642,-0.9624,-0.9602,-0.9587,-0.9568,-0.9546,-0.954,-0.9501,-0.9489,-0.947,-0.9456,-0.9428,-0.9408,-0.9382,-0.9364,-0.9341,-0.9336,-0.9337,-0.9346,-0.9357,-0.9351,-0.9303,-0.9335,-0.9335,-0.9334,-0.9334,-0.9334,-0.9689,-0.9683,-0.9655,-0.9637,-0.9617,-0.9598,-0.9589,-0.9565,-0.9548,-0.9523,-0.9504,-0.9486,-0.9459,-0.9423,-0.9406,-0.9391,-0.9381,-0.9382,-0.9382,-0.9383,-0.9386,-0.936,-0.9387,-0.9387,-0.9386,-0.9386,-0.9386,0,-0.9725,-0.9705,-0.9689,-0.966,-0.9646,-0.9626,-0.9601,-0.9591,-0.9576,-0.9552,-0.9535,-0.9513,-0.9493,-0.9463,-0.9441,-0.9435,-0.9424,-0.9431,-0.943,-0.9427,-0.9397,-0.9399,-0.944,-0.944,-0.944,-0.944,-0.944,-0.944,-0.9742,-0.9731,-0.9713,-0.9692,-0.9672,-0.9655,-0.9642,-0.9625,-0.9606,-0.9583,-0.9567,-0.9547,-0.9521,-0.9497,-0.9478,-0.9469,-0.9463,-0.9473,-0.9461,-0.9434,-0.9429,-0.9424,-0.9425,-0.9471,-0.9471,-0.9491,-0.9492,-0.9492]},{"header":{"parameterUnit":"m.s-1","parameterCategory":1,"la1":30.2991,"la2":30.254,"lo1":-89.0895,"lo2":-89.0444,"dy":0.0017,"dx":0.0017,"nx":28,"ny":28,"refTime":"2023-07-19T09:00:00:Z","depth":0,"parameterNumber":3,"parameterNumberName":"V-component_of_WINDS"},"data":[0,0,0,0,0,0,0,0,0,0,0,0,0,0,0,0,0,0,0,0,0,0,0,0,0,0,0,0,0,0,0,0,0,0,0,0,0,0,0,0,0,0,0,0,0,0,0,0,0,0,0,0,0,0,0,0,0,0,4.4713,4.4712,0,4.4663,4.4663,4.4662,4.4604,4.4603,4.4602,4.4601,4.4548,4.4547,4.4547,0,0,0,0,0,0,0,0,0,0,0,0,0,4.4754,4.4753,4.4713,4.4712,4.4711,4.4664,4.4663,4.4662,4.4604,4.4603,4.4602,4.4601,4.4548,4.4547,4.4547,0,0,0,0,0,0,0,0,0,0,0,0,0,4.4723,4.4753,4.4713,4.4677,4.4673,4.4664,4.4663,4.4662,4.4604,4.4603,4.4602,4.46,4.4548,4.4547,4.4547,4.4568,0,0,4.4544,4.4543,0,0,0,0,0,0,0,0,4.4725,4.4722,4.4683,4.4679,4.4675,4.4639,4.4658,4.463,4.4605,4.463,4.4601,4.46,4.4579,4.4575,4.4569,4.4565,4.4563,4.4544,4.4543,4.4543,4.4543,0,0,0,0,0,0,0,4.4727,4.4724,4.4693,4.4682,4.4677,4.4662,4.4656,4.4652,4.4613,4.4628,4.4624,4.4619,4.4577,4.457,4.4567,4.4562,4.4544,4.4543,4.4542,4.4542,4.4574,4.4575,0,0,0,0,0,0,4.4735,4.4726,4.4695,4.4692,4.4697,4.4663,4.4656,4.4652,4.4612,4.4605,4.462,4.4616,4.4572,4.4568,4.4565,4.4588,4.4543,4.4542,4.4541,4.4572,4.4574,4.4575,0,0,0,0,0,0,4.4736,4.4733,4.4697,4.4708,4.4702,4.4663,4.4659,4.4651,4.4645,4.4607,4.4599,4.4621,4.4571,4.4566,4.4568,4.4585,4.4542,4.4541,4.4571,4.4573,4.4575,4.4633,0,0,0,0,0,0,4.4738,4.4734,4.4742,4.4708,4.4701,4.4701,4.466,4.4651,4.4644,4.4638,4.4605,4.4598,4.457,4.457,4.4567,4.4583,4.454,4.4569,4.4571,4.4574,4.4629,4.4636,4.4643,0,0,0,0,0,4.474,4.4759,4.4743,4.4739,4.4711,4.4702,4.4698,4.4665,4.4645,4.4653,4.4628,4.4599,4.4584,4.457,4.4567,4.4583,4.4568,4.4571,4.4574,4.4626,4.4635,4.4643,0,0,0,0,0,0,4.4795,4.4754,4.4735,4.4745,4.4728,4.4692,4.4701,4.4676,4.4663,4.4658,4.4618,4.4611,4.4617,4.46,4.4585,4.4601,4.4571,4.4574,4.4612,4.462,4.4627,4.4631,4.4539,0,0,0,0,0,4.4809,4.4806,4.477,4.4782,4.4774,4.4739,4.4734,4.4711,4.4691,4.4682,4.4658,4.4639,4.4629,4.4624,4.4613,4.4626,4.4618,4.4636,4.4643,4.4649,4.4651,4.4657,4.4664,4.4585,4.4585,4.4585,0,0,4.4836,4.4813,4.4814,4.4792,4.4776,4.4773,4.4733,4.4732,4.4729,4.4682,4.4682,4.4664,4.4639,4.4647,4.4649,4.4633,4.4671,4.4652,4.4657,4.4657,4.4661,4.4668,4.4675,4.4588,4.4587,4.4587,0,0,4.4885,4.4868,4.4876,4.4861,4.4837,4.4814,4.4816,4.4785,4.4771,4.4771,4.4736,4.4731,4.4716,4.4701,4.4691,4.4735,4.4708,4.4733,4.4768,4.4774,4.4781,4.4786,4.4801,4.4808,4.4735,4.4735,4.4736,0,4.4921,4.4917,4.4883,4.4884,4.4876,4.4834,4.4842,4.4829,4.4803,4.4797,4.478,4.4761,4.4742,4.4745,4.4756,4.475,4.475,4.4736,4.4783,4.4788,4.4792,4.4806,4.4812,4.4739,4.4738,4.4738,4.4738,0,4.4963,4.496,4.497,4.4947,4.494,4.4944,4.4911,4.4907,4.4885,4.4863,4.4864,4.484,4.4823,4.4823,4.48,4.4823,4.4814,4.479,4.4759,4.4803,4.4816,4.4821,4.4743,4.4742,4.4741,4.474,0,0,4.5044,4.5004,4.5008,4.4997,4.4969,4.4965,4.4968,4.4953,4.4951,4.4935,4.4936,4.4925,4.4903,4.4892,4.4867,4.4873,4.491,4.4848,4.4847,4.486,4.4933,4.4951,4.4958,4.4892,4.4893,4.4893,4.4935,0,4.5087,4.509,4.5061,4.5071,4.5068,4.503,4.5032,4.5014,4.4995,4.4989,4.4966,4.4959,4.4931,4.4924,4.4928,4.4904,4.4924,4.4901,4.4891,4.4891,4.4898,4.4965,4.4983,4.5023,4.494,4.4941,4.4941,0,4.5138,4.5126,4.5137,4.5108,4.5106,4.5109,4.5093,4.5088,4.5068,4.5053,4.5041,4.5014,4.5014,4.4985,4.4984,4.497,4.4964,4.4952,4.4953,4.495,4.4919,4.4963,4.5036,4.5042,4.4949,4.4948,4.4948,0,4.5196,4.5182,4.5187,4.5179,4.5146,4.5149,4.5135,4.5113,4.5107,4.5093,4.5088,4.5075,4.5067,4.5057,4.5026,4.5008,4.5029,4.4998,4.5016,4.5017,4.5021,4.5021,4.5093,4.5019,4.5019,4.5019,4.5018,0,4.5247,4.5255,4.5212,4.5215,4.5223,4.5189,4.5198,4.518,4.5161,4.516,4.5125,4.5124,4.5084,4.5079,4.5055,4.5058,4.5054,4.5042,4.5035,4.5045,4.5046,4.504,4.5036,4.502,4.502,4.5019,4.5019,0,4.5312,4.5284,4.5287,4.5256,4.5249,4.5256,4.5229,4.523,4.5209,4.5208,4.5205,4.5172,4.5163,4.5132,4.5116,4.51,4.511,4.5098,4.5118,4.5113,4.5133,4.5132,4.5203,4.5211,4.5132,4.5133,4.5134,0,4.5346,4.5352,4.5322,4.5319,4.5308,4.5303,4.5297,4.5263,4.5258,4.5235,4.5239,4.5229,4.5218,4.5207,4.518,4.5168,4.5154,4.518,4.5152,4.5162,4.5154,4.5154,4.5155,4.5186,4.5187,4.5188,4.5189,0,4.541,4.5396,4.5388,4.5377,4.537,4.5359,4.5345,4.5345,4.5308,4.5303,4.5295,4.5287,4.5272,4.5261,4.5245,4.5229,4.5203,4.5198,4.5202,4.5211,4.5222,4.5216,4.5134,4.5196,4.5196,4.5195,4.5195,4.5194,4.546,4.5464,4.5444,4.5437,4.5423,4.5412,4.5412,4.5391,4.5384,4.537,4.535,4.5345,4.5324,4.5299,4.5286,4.5281,4.5266,4.5271,4.5272,4.5274,4.5279,4.5224,4.5278,4.5278,4.5277,4.5277,4.5277,0,4.5522,4.5507,4.5501,4.5484,4.5479,4.5456,4.544,4.5437,4.5433,4.5416,4.5407,4.5398,4.5388,4.5362,4.5349,4.535,4.5337,4.5348,4.5347,4.5344,4.5293,4.5291,4.5358,4.5358,4.5358,4.5358,4.5358,4.5358,4.5553,4.5558,4.5542,4.5539,4.5525,4.552,4.5513,4.5502,4.5489,4.5481,4.5473,4.5456,4.5435,4.5421,4.5411,4.5403,4.54,4.5414,4.5403,4.5355,4.5347,4.534,4.5338,4.5414,4.5414,4.5454,4.5454,4.5455]}]]